Content
SEND FEEDBACK

Daily
Averages
Monthly
Summary
Peru

ASNAPUQUIO, PERU


Home > South America > Peru
Elevation: 43 feet     Latitude: 12 10S     Longitude: 077 01W

WEATHER
 
SELECT A DAY
Number of Records: 174,057;   Date Range: 6/30/96 - 4/22/14
 
SHARE

PRINT THIS DATA

[ ← Previous Day ]
WEATHER ALMANAC - FEBRUARY 13, 2013
[ Next Day → ]
[ °C ]   °F
Weather ElementAverageHighLow
Temperature74.7 °F80.6 °F (1:00 pm)69.8 °F (5:00 am)
Dewpoint67.8 °F69 °F (4:00 am)66.2 °F (8:00 pm)
Humidity78.3 %94 % (5:00 am)56 % (4:00 pm)
Barometer29.85 in29.90 in (10:00 am)29.80 in (4:00 pm)
Wind Speed7.9 mph12.7 mph (4:00 pm)
Weather ElementAverage
Visibility4.6 mi
Wind DirectionSSW (189.7 °)

Weather ElementTotal
Precipitation---
Cooling Degree Days10.2 (Base 65)
Growing Degree Days25.2 (Base 50)
Averaged from 32 records on February 13, 2013
WEATHER CONDITIONS BREAKOUT
WIND DIRECTION BREAKOUT
WEATHER BY HOUR - FEBRUARY 13, 2013
[ °C ]   °F
Local TimeTemperatureDewpointHumidityBarometerVisibilityWind DirectionWind SpeedGust SpeedPrecipitationEventsConditions
1:00 AM74.0 °F68.0 °F78 %29.87 in6.0 miSSE (160°)11.5 mphPartly Cloudy
1:00 AM73.4 °F68.0 °F83 %29.86 inSSE (160°)11.5 mphClear
2:00 AM73.4 °F68.0 °F83 %29.83 inSSE (160°)10.4 mphClear
3:00 AM71.6 °F68.0 °F88 %29.83 in6.2 miSouth (170°)9.2 mphMostly Cloudy
4:00 AM71.0 °F69.0 °F89 %29.82 in4.0 miSouth (170°)6.9 mphPartly Cloudy
4:00 AM71.6 °F68.0 °F88 %29.83 in4.3 miSouth (170°)6.9 mphMostly Cloudy
5:00 AM69.8 °F68.0 °F94 %29.83 in3.7 miSouth (170°)3.5 mphMostly Cloudy
5:25 AM69.8 °F68.0 °F94 %29.83 in3.1 miSSW (200°)4.6 mphOvercast
6:00 AM69.8 °F68.0 °F94 %29.83 in2.5 miSouth (180°)4.6 mphOvercast
7:00 AM70.0 °F68.0 °F91 %29.87 in4.0 miSouth (190°)3.5 mphMist
7:00 AM69.8 °F68.0 °F94 %29.86 in3.7 miSouth (190°)3.5 mphOvercast
8:00 AM71.6 °F68.0 °F88 %29.89 in2.8 miVariable2.3 mphScattered Clouds
9:00 AM75.2 °F68.0 °F78 %29.89 in4.3 miWest (280°)4.6 mphPartly Cloudy
10:00 AM75.0 °F69.0 °F75 %29.90 in4.0 miWest (270°)4.6 mphMist
10:00 AM75.2 °F68.0 °F78 %29.89 in4.3 miWest (270°)4.6 mphPartly Cloudy
11:00 AM75.2 °F68.0 °F78 %29.89 in5.0 miWest (270°)5.8 mphPartly Cloudy
12:00 PM78.8 °F68.0 °F69 %29.89 inWSW (240°)4.6 mphClear
1:00 PM80.0 °F69.0 °F61 %29.86 in6.0 miWest (280°)8.1 mphPartly Cloudy
1:00 PM80.6 °F68.0 °F65 %29.86 inWest (280°)8.1 mphClear
2:00 PM80.6 °F68.0 °F65 %29.83 inSSW (200°)8.1 mphClear
3:00 PM80.6 °F68.0 °F65 %29.83 inSouth (190°)10.4 mphClear
4:00 PM80.0 °F67.0 °F56 %29.81 in6.0 miSouth (190°)12.7 mphPartly Cloudy
4:00 PM80.6 °F68.0 °F65 %29.80 inSouth (190°)12.7 mphClear
5:00 PM78.8 °F68.0 °F69 %29.80 inSSE (160°)12.7 mphClear
6:00 PM77.0 °F68.0 °F74 %29.80 in6.2 miSouth (170°)11.5 mphScattered Clouds
7:00 PM74.0 °F67.0 °F74 %29.82 in6.0 miSouth (170°)10.4 mphPartly Cloudy
7:00 PM75.2 °F68.0 °F78 %29.83 inSouth (170°)10.4 mphClear
8:00 PM73.4 °F66.2 °F78 %29.83 inSouth (170°)9.2 mphClear
9:00 PM73.4 °F66.2 °F78 %29.86 inSSE (160°)10.4 mphClear
10:00 PM73.0 °F67.0 °F76 %29.88 in6.0 miSSE (160°)8.1 mphClear
10:00 PM73.4 °F66.2 °F78 %29.86 inSSE (160°)8.1 mphClear
11:00 PM73.4 °F68.0 °F83 %29.89 inSouth (170°)8.1 mphClear
Hourly data recorded from SPIM, located 11.65 miles away from Asnapuquio, Peru







STORIES FROM OUR PARTNERS